Regional Weather Roundup
Issued by NWS

Home | Current Version | Previous Version | Text Only | Print | Product List | Glossary On
Versions: 1 2 3 4 5 6 7 8 9 10 11 12 13 14 15 16 17 18 19 20 21 22 23 24 25 26 27 28 29 30 31 32 33 34 35 36 37 38 39 40 41 42 43 44 45 46 47 48 49 50
000
ASUS43 KLMK 231402
RWRKY
KENTUCKY REGIONAL WEATHER ROUNDUP
NATIONAL WEATHER SERVICE LOUISVILLE KY
1000 AM EDT WED AUG 23 2017

NOTE "FAIR" INDICATES FEW OR NO CLOUDS BELOW 12,000 FEET
WITH NO SIGNIFICANT WEATHER AND/OR OBSTRUCTIONS TO VISIBILITY.

KYZ001>023-026-027-061>063-070>075-231500-
WESTERN AND SOUTH CENTRAL KENTUCKY

CITY           SKY/WX    TMP DP  RH WIND       PRES   REMARKS
PADUCAH        SUNNY     71  60  68 N6        30.07S
HENDERSON      NOT AVBL
OWENSBORO      SUNNY     68  60  75 N6        30.06R
HOPKINSVILLE   SUNNY     71  64  78 NW6       30.05S
BOWLING GREEN  SUNNY     73  64  73 VRB5      30.04S
GLASGOW        SUNNY     73  62  70 N3        30.04R
$$

KYZ024-025-028>034-038-045-046-053-231500-
NORTH CENTRAL KENTUCKY

CITY           SKY/WX    TMP DP  RH WIND       PRES   REMARKS
LOUISVILLE/SDF MOSUNNY   72  61  68 NE6       30.03R
LOUISVILLE/LOU SUNNY     72  64  76 N3        30.04R
FORT KNOX      SUNNY     69  64  84 N5        30.03R
$$

KYZ035>037-039>044-047>052-055>060-089>105-231500-
NORTHEAST KENTUCKY

CITY           SKY/WX    TMP DP  RH WIND       PRES   REMARKS
LEXINGTON      MOSUNNY   72  57  59 N8        30.04R
COVINGTON      SUNNY     70  58  65 N7        30.03S
FRANKFORT      PTSUNNY   71  59  65 N6        30.03R
$$

KYZ054-064>069-076>088-106>120-231500-
SOUTHEAST KENTUCKY

CITY           SKY/WX    TMP DP  RH WIND       PRES   REMARKS
JACKSON        PTSUNNY   71  65  81 CALM      30.02R
LONDON         CLOUDY    72  66  81 VRB5      30.02S
SOMERSET       NOT AVBL
MIDDLESBORO    MOSUNNY   74  68  81 CALM      30.01S
MONTICELLO     CLOUDY    71  67  87 N10       30.04S
$$





USA.gov is the U.S. government's official web portal to all federal, state and local government web resources and services.